[Iaude] MPEC A72: 2024 AL1 [a=2.52,e=0.65,i=25.8,H=18.6]

mpec at marsden.cfa.harvard.edu mpec at marsden.cfa.harvard.edu
Mon Jan 8 03:48:02 EST 2024


M.P.E.C. 2024-A72                               Issued 2024 January 8, 08:46 UT

     The Minor Planet Electronic Circulars contain information on unusual
         minor planets, routine data on comets and natural satellites,
         and occasional editorial announcements.  They are published
    on behalf of Division F of the International Astronomical Union by the
          Minor Planet Center, Smithsonian Astrophysical Observatory,
                          Cambridge, MA 02138, U.S.A.
			  
             Prepared using the Tamkin Foundation Computer Network

                              MPC at CFA.HARVARD.EDU
            URL https://www.minorplanetcenter.net/    ISSN 1523-6714

                                    2024 AL1                                    


Observations:
     K24A01L*2C2024 01 04.03958 22 45 36.281-13 28 06.33         20.7 rVEA072W84
     K24A01L 2C2024 01 04.04192 22 45 37.080-13 28 06.03         20.9 rVEA072W84
     K24A01L 0C2024 01 04.82262822 50 08.990-13 27 46.56         20.0 GVEA072Z24
     K24A01L 0C2024 01 04.82684222 50 10.428-13 27 46.30         20.4 GVEA072Z24
     K24A01L 0C2024 01 04.83144522 50 12.014-13 27 46.31         20.5 GVEA072Z24
     K24A01L .C2024 01 05.04063 22 51 24.635-13 27 27.30         20.4 rVEA072807
     K24A01L .C2024 01 05.04205 22 51 25.139-13 27 27.50         20.3 rVEA072807
     K24A01L 0C2024 01 05.20776122 52 22.824-13 27 25.51         20.71GVEA072T12
     K24A01L 0C2024 01 05.21633322 52 25.763-13 27 25.07         20.77GVEA072T12
     K24A01L .C2024 01 06.03538 22 57 09.835-13 26 20.71         20.5 rVEA072807
     K24A01L .C2024 01 06.03613 22 57 10.087-13 26 20.84         20.4 rVEA072807
     K24A01L .C2024 01 06.03685 22 57 10.303-13 26 20.88         20.3 rVEA072807
     K24A01L .C2024 01 06.03756 22 57 10.606-13 26 20.70         20.4 rVEA072807
     K24A01L .C2024 01 06.03831 22 57 10.850-13 26 20.60         20.5 rVEA072807
     K24A01L .C2024 01 06.03904 22 57 11.077-13 26 20.38         20.4 rVEA072807
     K24A01L .C2024 01 06.03977 22 57 11.354-13 26 20.26         20.2 rVEA072807
     K24A01L .C2024 01 06.04124 22 57 11.852-13 26 20.23         20.3 rVEA072807
     K24A01L .C2024 01 06.04196 22 57 12.107-13 26 20.20         20.4 rVEA072807
     K24A01L 0C2024 01 08.22466623 09 45.266-13 22 22.76         20.79GVEA072T12

Observer details:
807 Cerro Tololo Observatory, La Serena.  Observers S. S. Sheppard, K. Lee, G.
    Ramgopal.  Measurer S. S. Sheppard.  4.0-m CTIO reflector + CCD.
T12 University of Hawaii 88-inch telescope, Maunakea.  Observer D. J. Tholen.
    2.24-m f/10.1 reflector + 2112 x 2112 pixels STA1600 10k CCD.
W84 Cerro Tololo-DECam.  Observer S. S. Sheppard.  4.0-m CTIO reflector + CCD.
Z24 Tenerife Observatory-LCO B, Tenerife.  Observers T. Santana-Ros, M.
    Micheli, F. Ocana, L. Conversi.  Measurer M. Micheli.  1.0-m reflector +
    CCD.

Orbital elements:
2024 AL1                                                 Earth MOID = 0.0863 AU
Epoch 2023 Sept. 13.0 TT = JDT 2460200.5                MPC                     
M 338.25190              (2000.0)            P               Q                  
n   0.24667691     Peri.  156.95002     +0.98376550     +0.01751392             
a   2.5179690      Node   204.20525     -0.01662526     +0.99984085             
e   0.6526540      Incl.   25.82397     +0.17868699     -0.00339687             
P   4.00           H   18.61          G   0.15           U   9                  
Residuals in seconds of arc
240104 W84  0.2+  0.1-    240105 T12  0.2+  0.1+    240106 807  0.2-  0.1+
240104 W84  0.0   0.1+    240105 T12  0.1-  0.0     240106 807  0.2+  0.2+
240104 Z24  0.2+  0.1+    240106 807  0.2+  0.1+    240106 807  0.1+  0.1+
240104 Z24  0.1-  0.2+    240106 807  0.1+  0.1-    240106 807  0.2+  0.0
240104 Z24  0.1-  0.1-    240106 807  0.4-  0.2-    240108 T12  0.0   0.0
240105 807  0.2-  0.1+    240106 807  0.4+  0.1-
240105 807  0.0   0.2-    240106 807  0.2+  0.0

Ephemeris:
2024 AL1                 a,e,i = 2.52, 0.65, 26                  q = 0.8746
Date    TT    R. A. (2000) Decl.     Delta      r    Elong.  Phase     V
2023 12 09    20 16 57.4 -11 23 33   1.1356  0.8748    48.1    56.9    20.7
...
2023 12 24    21 41 11.6 -13 05 09   1.0704  0.8982    51.7    59.2    20.6
...
2024 01 01    22 27 53.9 -13 27 15   1.0598  0.9319    54.1    58.7    20.7
...
2024 01 07    23 02 43.6 -13 24 53   1.0643  0.9651    56.1    57.7    20.7
2024 01 08    23 08 28.2 -13 22 50   1.0660  0.9712    56.4    57.5    20.8
2024 01 09    23 14 11.3 -13 20 20   1.0681  0.9775    56.7    57.3    20.8
...
2024 01 15    23 47 52.1 -12 55 44   1.0866  1.0180    58.7    55.6    20.8
...
2024 01 23    00 30 35.5 -12 00 05   1.1266  1.0787    61.0    53.0    21.0
...
2024 02 07    01 42 21.7 -09 26 55   1.2434  1.2061    64.3    47.5    21.3

A. U. Tomatic                (C) Copyright 2024 MPC           M.P.E.C. 2024-A72





More information about the Iaude mailing list